This is the latest recevied weather packets stored in our database for station/object JA1CAY-13. If no packets are shown the sender has not sent any weather packets the latest 10 day(s).
| Time | Temp. | Humidity | Pressure | Rain* | Wind** | Luminosity | Snow |
|---|---|---|---|---|---|---|---|
| 1777759045 | 14.44° C | 80% | 1013.1 hPa | 0 mm | - | 63 W/m² | - |
| 1777756345 | 13.89° C | 82% | 1012.9 hPa | 0 mm | - | 21 W/m² | - |
| 1777752565 | 13.33° C | 82% | 1012.5 hPa | 0 mm | - | 7 W/m² | - |
| 1777751485 | 13.33° C | 81% | 1012.3 hPa | 0 mm | - | 0 W/m² | - |
| 1777750945 | 13.33° C | 81% | 1012.4 hPa | 0 mm | - | 0 W/m² | - |
| 1777743924 | 13.89° C | 78% | 1012.4 hPa | 0 mm | - | 0 W/m² | - |
| 1777734745 | 13.33° C | 76% | 1012.5 hPa | 0 mm | - | 0 W/m² | - |
| 1777733665 | 13.33° C | 75% | 1012.5 hPa | 0 mm | - | 0 W/m² | - |
| 1777731504 | 14.44° C | 72% | 1012.3 hPa | 0 mm | - | 0 W/m² | - |
| 1777729344 | 15° C | 70% | 1012.1 hPa | 0 mm | - | 0 W/m² | - |
| 1777726645 | 16.11° C | 66% | 1011.7 hPa | 0 mm | - | 0 W/m² | - |
| 1777718005 | 20.56° C | 53% | 1009 hPa | 0 mm | - | 0 W/m² | - |
| 1777716925 | 21.11° C | 50% | 1008.6 hPa | 0 mm | - | 0 W/m² | - |
| 1777712605 | 24.44° C | 40% | 1007.6 hPa | 0 mm | - | 19 W/m² | - |
| 1777711525 | 25° C | 38% | 1007.3 hPa | 0 mm | - | 47 W/m² | - |
| 1777705585 | 27.78° C | 25% | 1005.6 hPa | 0 mm | - | 316 W/m² | - |
| 1777704505 | 28.33° C | 24% | 1005.2 hPa | 0 mm | - | 290 W/m² | - |
| 1777699645 | 29.44° C | 25% | 1004.6 hPa | 0 mm | - | 701 W/m² | - |
| 1777696405 | 28.89° C | 25% | 1004.5 hPa | 0 mm | - | 842 W/m² | - |
| 1777691004 | 27.22° C | 29% | 1004.4 hPa | 0 mm | - | 949 W/m² | - |
| 1777687765 | 25.56° C | 28% | 1004.4 hPa | 0 mm | - | 946 W/m² | - |
| 1777686144 | 25° C | 32% | 1004.3 hPa | 0 mm | - | 921 W/m² | - |
| 1777682904 | 23.89° C | 37% | 1004 hPa | 0 mm | - | 846 W/m² | - |
| 1777679664 | 22.22° C | 40% | 1004.1 hPa | 0 mm | - | 710 W/m² | - |
| 1777679125 | 21.67° C | 39% | 1004.2 hPa | 0 mm | - | 680 W/m² | - |
* Rain latest hour (hover to see other rain measurements)
** Current wind speed in m/s (hover to see current wind gust speed)